Tracking 31027 objects as of 19-Jul-2025
HD Live streaming from Space Station
objects crossing your sky now

SL-16 DEB

Track SL-16 DEB now!
10-day predictions


NORAD ID: 29105
Int'l Code: 2004-021G
Perigee: 782.6 km
Apogee: 1,044.8 km
Inclination: 70.9 °
Period: 103.1 minutes
Semi major axis: 7284 km
RCS: 0.0109 m2 (small)
Launch date: June 10, 2004
Source: Commonwealth of Independent States (former USSR) (CIS)
Launch site: TYURATAM MISSILE AND SPACE COMPLEX (TTMTR)

Note: This is SATELLITE DEBRIS
Your satellite tracking list
SPACEBEENZ-7
Track 1 satellite(s)




NASA's NSSDC Master Catalog

Two Line Element Set (TLE):
1 29105U 04021G   25199.37127988  .00002367  00000-0  15274-2 0  9994
2 29105  70.9176 238.3720 0179968  16.7738 343.9219 13.96321150607315
Source of the keplerian elements: AFSPC